Location: Karaa?a�
(36.7158°N, 30.4165°E)
Time: 08:22:03
(UTC+00:00)

ATLAS 2AS CENTAUR R/B - Pass Details

Date: 09 April 2020
Orbit: 931 x 1280 km, 63.7° (Epoch: 30 May)

Event Time Altitude Azimuth Distance (km) Brightness Sun altitude
Rises 18:11:35 0° 325° (NW) 4,122 6.8 -20.4°
Reaches altitude 10° 18:14:27 10° 323° (NW) 3,110 6.1 -20.9°
Maximum altitude 18:21:47 67° 243° (WSW) 1,192 3.0 -22.2°
Enters shadow 18:25:35 28° 169° (SSE) 1,883 3.6 -22.9°
